カタログに戻る

FENGYUN 1C DEB

運用中PO
NORAD 36657·DEBRIS·🇨🇳 China

打ち上げ May 10, 1999 から Taiyuan Satellite Launch Center

Loading…

次のパス (今後24時間)

TLE

経年Source: Space-Track

元期: Sep 7, 2026, 06:35 UTC

1 36657U 99025DYB 26250.27448614  .00001256  00000-0  21769-3 0  9995
2 36657  99.4297  85.9012 0101731 331.4275  28.1372 14.67296654701924

AllMySatでFENGYUN 1C DEBをリアルタイム追跡

Download on the App Store